TimeEDT,TemperatureF,Dew PointF,Humidity,Sea Level PressureIn,VisibilityMPH,Wind Direction,Wind SpeedMPH,Gust SpeedMPH,PrecipitationIn,Events,Conditions,WindDirDegrees,DateUTC
12:53 AM,72.0,69.1,91,30.17,4.0,Calm,Calm,-,N/A,,Clear,0,2013-09-11 04:53:00
1:53 AM,73.0,69.1,87,30.18,6.0,Calm,Calm,-,N/A,,Clear,0,2013-09-11 05:53:00
2:53 AM,72.0,68.0,87,30.17,5.0,Calm,Calm,-,N/A,,Clear,0,2013-09-11 06:53:00
3:51 AM,69.8,66.2,88,30.21,2.0,Calm,Calm,-,N/A,,Clear,0,2013-09-11 07:51:00
3:53 AM,70.0,66.9,90,30.17,2.5,Calm,Calm,-,N/A,,Clear,0,2013-09-11 07:53:00
4:00 AM,69.8,66.2,88,30.21,4.0,Calm,Calm,-,N/A,,Clear,0,2013-09-11 08:00:00
4:53 AM,69.1,66.0,90,30.18,5.0,Calm,Calm,-,0.01,,Clear,0,2013-09-11 08:53:00
5:40 AM,69.8,66.2,88,30.22,2.5,Calm,Calm,-,N/A,,Scattered Clouds,0,2013-09-11 09:40:00
5:53 AM,69.1,66.9,93,30.18,3.0,Calm,Calm,-,N/A,,Mostly Cloudy,0,2013-09-11 09:53:00
6:53 AM,69.1,66.9,93,30.19,4.0,Calm,Calm,-,N/A,,Clear,0,2013-09-11 10:53:00
7:53 AM,69.1,66.0,90,30.21,3.0,Calm,Calm,-,N/A,,Clear,0,2013-09-11 11:53:00
8:53 AM,72.0,68.0,87,30.21,5.0,Calm,Calm,-,N/A,,Clear,0,2013-09-11 12:53:00
9:53 AM,73.9,69.1,85,30.22,6.0,Calm,Calm,-,N/A,,Haze,0,2013-09-11 13:53:00
10:53 AM,79.0,69.1,72,30.21,10.0,WSW,3.5,-,N/A,,Mostly Cloudy,250,2013-09-11 14:53:00
11:53 AM,81.0,69.1,67,30.21,10.0,West,4.6,-,N/A,,Overcast,270,2013-09-11 15:53:00
12:53 PM,84.0,69.1,61,30.19,10.0,West,9.2,-,N/A,,Clear,270,2013-09-11 16:53:00
1:53 PM,84.9,70.0,61,30.16,10.0,WSW,5.8,-,N/A,,Clear,240,2013-09-11 17:53:00
2:06 PM,87.8,69.8,55,30.19,10.0,West,10.4,-,N/A,Thunderstorm,Partly Cloudy,280,2013-09-11 18:06:00
2:21 PM,84.2,69.8,62,30.18,10.0,NW,5.8,-,N/A,,Partly Cloudy,310,2013-09-11 18:21:00
2:53 PM,86.0,68.0,55,30.13,10.0,West,10.4,-,N/A,,Partly Cloudy,280,2013-09-11 18:53:00
3:53 PM,84.9,68.0,57,30.12,10.0,West,5.8,-,N/A,,Clear,280,2013-09-11 19:53:00
4:22 PM,87.8,66.2,49,30.15,10.0,NW,4.6,-,N/A,Thunderstorm,Partly Cloudy,310,2013-09-11 20:22:00
4:53 PM,81.0,66.9,62,30.11,10.0,WNW,13.8,19.6,N/A,Thunderstorm,Clear,290,2013-09-11 20:53:00
5:53 PM,77.0,66.0,69,30.13,10.0,WSW,5.8,-,N/A,Thunderstorm,Mostly Cloudy,250,2013-09-11 21:53:00
6:12 PM,77.0,66.2,69,30.16,10.0,SSW,3.5,-,N/A,,Partly Cloudy,200,2013-09-11 22:12:00
6:53 PM,75.9,66.9,74,30.14,10.0,South,4.6,-,N/A,,Clear,190,2013-09-11 22:53:00
7:53 PM,73.9,68.0,82,30.12,10.0,Calm,Calm,-,N/A,,Clear,0,2013-09-11 23:53:00
8:53 PM,73.0,68.0,84,30.12,10.0,South,5.8,-,N/A,,Clear,190,2013-09-12 00:53:00
9:53 PM,72.0,68.0,87,30.12,10.0,West,3.5,-,N/A,,Clear,270,2013-09-12 01:53:00
10:53 PM,71.1,66.9,87,30.12,8.0,SSE,3.5,-,N/A,,Clear,160,2013-09-12 02:53:00
11:53 PM,70.0,66.9,90,30.09,7.0,Calm,Calm,-,N/A,,Clear,0,2013-09-12 03:53:00